| time (UTC) | temp F | wind direction | speed knots | gust knots | rain 1hr in | rain 24hr in | rain mn in | humidity % | barometer mb |
| 20260510044621 | 56 | 275 | 0.0 | 1.7 | 0.00 | 0.35 | 0.04 | 87 | 1007.3 |
| 20260510043656 | 56 | 190 | 0.0 | 7.8 | 0.06 | 0.35 | 0.04 | 87 | 1007.6 |
| 20260510041650 | 56 | 195 | 0.0 | 1.7 | 0.00 | 0.31 | 0.00 | 90 | 1007.3 |
| 20260510040154 | 56 | 182 | 0.0 | 1.7 | 0.00 | 0.32 | 0.00 | 90 | 1006.3 |
| 20260510035742 | 55 | 130 | 0.0 | 1.7 | 0.00 | 0.32 | 0.33 | 90 | 1006.3 |
| 20260510034831 | 55 | 144 | 0.0 | 0.0 | 0.00 | 0.32 | 0.33 | 90 | 1006.4 |
| 20260510034415 | 55 | 146 | 0.0 | 0.0 | 0.00 | 0.32 | 0.33 | 90 | 1006.2 |
| 20260510034016 | 55 | 155 | 0.0 | 0.9 | 0.00 | 0.32 | 0.33 | 90 | 1006.1 |
| 20260510033611 | 55 | 148 | 0.0 | 0.0 | 0.00 | 0.32 | 0.33 | 90 | 1005.9 |
| 20260510033208 | 55 | 144 | 0.0 | 0.0 | 0.00 | 0.32 | 0.33 | 90 | 1005.8 |
| 20260510032813 | 55 | 111 | 0.0 | 0.0 | 0.00 | 0.32 | 0.33 | 90 | 1005.8 |
| 20260510032408 | 55 | 111 | 0.0 | 0.0 | 0.00 | 0.32 | 0.33 | 90 | 1005.7 |
| 20260510031431 | 55 | 111 | 0.0 | 0.0 | 0.00 | 0.32 | 0.33 | 90 | 1005.8 |
| 20260510031020 | 55 | 110 | 0.0 | 0.0 | 0.00 | 0.32 | 0.33 | 90 | 1005.7 |
| 20260510025557 | 55 | 141 | 0.0 | 0.0 | 0.00 | 0.32 | 0.33 | 90 | 1005.8 |
| 20260510025204 | 55 | 138 | 0.0 | 0.0 | 0.00 | 0.32 | 0.33 | 89 | 1005.8 |
| 20260510024757 | 55 | 140 | 0.0 | 0.0 | 0.00 | 0.32 | 0.33 | 89 | 1005.9 |
| 20260510024353 | 55 | 140 | 0.0 | 0.9 | 0.00 | 0.32 | 0.33 | 90 | 1005.9 |
| 20260510023953 | 55 | 140 | 0.0 | 0.0 | 0.00 | 0.32 | 0.32 | 89 | 1005.9 |
| 20260510023545 | 55 | 141 | 0.0 | 1.7 | 0.00 | 0.32 | 0.32 | 89 | 1005.9 |
| 20260510023131 | 55 | 140 | 0.0 | 0.9 | 0.00 | 0.32 | 0.32 | 89 | 1005.8 |
| 20260510022208 | 56 | 146 | 0.0 | 0.0 | 0.00 | 0.32 | 0.32 | 89 | 1005.9 |
| 20260510021814 | 56 | 152 | 0.0 | 0.9 | 0.00 | 0.32 | 0.32 | 89 | 1005.9 |
| 20260510021402 | 55 | 122 | 0.0 | 0.9 | 0.00 | 0.32 | 0.32 | 89 | 1005.9 |
| 20260510021009 | 55 | 112 | 0.0 | 1.7 | 0.00 | 0.32 | 0.32 | 89 | 1006.0 |
| 20260510020602 | 56 | 132 | 0.0 | 1.7 | 0.00 | 0.32 | 0.32 | 89 | 1005.9 |
| 20260510020208 | 55 | 134 | 0.0 | 1.7 | 0.00 | 0.32 | 0.32 | 89 | 1005.8 |
| 20260510015756 | 55 | 140 | 0.0 | 1.7 | 0.00 | 0.32 | 0.32 | 89 | 1005.9 |
| 20260510015349 | 55 | 152 | 0.0 | 0.0 | 0.00 | 0.32 | 0.32 | 89 | 1005.8 |
| 20260510014933 | 55 | 153 | 0.0 | 0.0 | 0.00 | 0.32 | 0.32 | 89 | 1005.9 |
| 20260510014532 | 55 | 155 | 0.0 | 0.0 | 0.00 | 0.32 | 0.32 | 89 | 1005.7 |
| 20260510013615 | 55 | 155 | 0.0 | 0.0 | 0.00 | 0.32 | 0.32 | 88 | 1005.6 |
| 20260510013220 | 55 | 156 | 0.0 | 0.0 | 0.00 | 0.33 | 0.32 | 88 | 1005.5 |
| 20260510012824 | 55 | 155 | 0.0 | 0.0 | 0.00 | 0.33 | 0.32 | 88 | 1005.5 |
| 20260510011905 | 56 | 156 | 0.0 | 0.0 | 0.00 | 0.33 | 0.32 | 88 | 1005.4 |
| 20260510011505 | 56 | 156 | 0.0 | 0.0 | 0.00 | 0.33 | 0.32 | 88 | 1005.4 |
| 20260510010541 | 56 | 156 | 0.0 | 0.0 | 0.00 | 0.33 | 0.32 | 88 | 1005.4 |
| 20260510010125 | 56 | 156 | 0.0 | 0.9 | 0.00 | 0.33 | 0.32 | 89 | 1005.3 |
| 20260510005730 | 56 | 157 | 0.0 | 0.9 | 0.00 | 0.33 | 0.32 | 88 | 1005.4 |
| 20260510005326 | 56 | 157 | 0.0 | 0.9 | 0.00 | 0.33 | 0.32 | 88 | 1005.3 |
| 20260510004917 | 56 | 157 | 0.0 | 0.9 | 0.00 | 0.33 | 0.32 | 88 | 1005.2 |
| 20260510004514 | 57 | 158 | 0.0 | 0.0 | 0.00 | 0.33 | 0.32 | 88 | 1005.2 |
| 20260510004115 | 57 | 151 | 0.0 | 0.9 | 0.00 | 0.33 | 0.32 | 88 | 1005.2 |
| 20260510002635 | 57 | 132 | 0.0 | 0.0 | 0.00 | 0.33 | 0.32 | 88 | 1005.0 |
| 20260510002232 | 57 | 134 | 0.0 | 0.9 | 0.00 | 0.33 | 0.32 | 88 | 1004.9 |
| 20260510001834 | 57 | 138 | 0.0 | 0.9 | 0.00 | 0.33 | 0.32 | 88 | 1005.0 |
| 20260510001422 | 57 | 129 | 0.0 | 0.9 | 0.00 | 0.33 | 0.32 | 88 | 1005.0 |
| 20260510001024 | 57 | 51 | 0.0 | 0.9 | 0.00 | 0.33 | 0.32 | 88 | 1005.0 |
| 20260510000611 | 57 | 50 | 0.0 | 0.9 | 0.00 | 0.33 | 0.32 | 87 | 1004.9 |
| 20260510000155 | 57 | 49 | 0.0 | 0.0 | 0.00 | 0.33 | 0.32 | 87 | 1004.9 |
| 20260509235746 | 57 | 75 | 0.0 | 3.5 | 0.00 | 0.33 | 0.32 | 87 | 1005.0 |
| 20260509235350 | 57 | 0 | 0.0 | 3.5 | 0.00 | 0.33 | 0.32 | 87 | 1005.0 |
| 20260509234944 | 57 | 53 | 0.0 | 3.5 | 0.00 | 0.33 | 0.32 | 87 | 1004.8 |
| 20260509234540 | 57 | 0 | 0.0 | 3.5 | 0.00 | 0.33 | 0.32 | 87 | 1004.8 |
| 20260509234143 | 57 | 84 | 0.9 | 3.5 | 0.00 | 0.33 | 0.32 | 87 | 1004.7 |
| 20260509233229 | 57 | 245 | 0.9 | 3.5 | 0.06 | 0.33 | 0.32 | 87 | 1004.6 |
| 20260509232822 | 57 | 172 | 0.9 | 4.3 | 0.09 | 0.33 | 0.32 | 87 | 1004.7 |
| 20260509232425 | 57 | 117 | 0.9 | 4.3 | 0.09 | 0.32 | 0.32 | 87 | 1004.8 |
| 20260509232026 | 56 | 158 | 0.9 | 4.3 | 0.17 | 0.32 | 0.31 | 87 | 1005.1 |
| 20260509231623 | 57 | 137 | 0.9 | 8.7 | 0.20 | 0.30 | 0.30 | 87 | 1004.9 |
| 20260509231216 | 56 | 172 | 1.7 | 8.7 | 0.23 | 0.28 | 0.28 | 87 | 1004.9 |
| 20260509230804 | 56 | 225 | 2.6 | 10.4 | 0.24 | 0.27 | 0.27 | 87 | 1005.5 |
| 20260509230351 | 56 | 218 | 2.6 | 10.4 | 0.32 | 0.25 | 0.24 | 87 | 1005.7 |
| 20260509225944 | 56 | 282 | 3.5 | 10.4 | 0.38 | 0.22 | 0.21 | 86 | 1005.8 |
| 20260509225018 | 57 | 182 | 3.5 | 10.4 | 0.27 | 0.11 | 0.10 | 84 | 1005.8 |
| 20260509224052 | 58 | 271 | 1.7 | 7.8 | 0.26 | 0.05 | 0.04 | 77 | 1004.9 |
| 20260509223650 | 60 | 309 | 2.6 | 7.8 | 0.00 | 0.03 | 0.03 | 72 | 1004.6 |
| 20260509223256 | 62 | 249 | 1.7 | 7.8 | 0.00 | 0.03 | 0.02 | 68 | 1004.9 |
| 20260509222322 | 70 | 0 | 0.9 | 4.3 | 0.00 | 0.03 | 0.02 | 53 | 1002.9 |
| 20260509221908 | 70 | 0 | 0.9 | 4.3 | 0.00 | 0.03 | 0.02 | 51 | 1002.2 |
| 20260509221001 | 70 | 0 | 0.9 | 7.8 | 0.00 | 0.03 | 0.02 | 51 | 1001.7 |
| 20260509220558 | 70 | 0 | 1.7 | 7.8 | 0.00 | 0.03 | 0.02 | 50 | 1001.5 |
| 20260509215109 | 71 | 0 | 2.6 | 10.4 | 0.00 | 0.03 | 0.02 | 48 | 1001.1 |
| 20260509214704 | 71 | 0 | 2.6 | 10.4 | 0.00 | 0.03 | 0.02 | 50 | 1001.2 |
| 20260509214248 | 71 | 0 | 1.7 | 7.8 | 0.00 | 0.03 | 0.02 | 49 | 1001.1 |
| 20260509213838 | 71 | 0 | 1.7 | 8.7 | 0.00 | 0.03 | 0.02 | 49 | 1001.2 |
| 20260509212909 | 71 | 0 | 1.7 | 13.0 | 0.00 | 0.03 | 0.02 | 50 | 1001.2 |
| 20260509212504 | 71 | 0 | 1.7 | 13.0 | 0.00 | 0.03 | 0.02 | 51 | 1001.3 |
| 20260509212054 | 71 | 0 | 2.6 | 13.0 | 0.00 | 0.03 | 0.02 | 52 | 1001.4 |
| 20260509211639 | 71 | 0 | 3.5 | 13.0 | 0.00 | 0.03 | 0.02 | 50 | 1001.4 |
| 20260509211241 | 71 | 0 | 2.6 | 13.0 | 0.00 | 0.03 | 0.02 | 50 | 1001.5 |
| 20260509210825 | 71 | 0 | 1.7 | 10.4 | 0.00 | 0.03 | 0.02 | 52 | 1001.7 |
| 20260509210411 | 71 | 244 | 2.6 | 11.3 | 0.00 | 0.03 | 0.02 | 51 | 1001.7 |
| 20260509210007 | 71 | 40 | 2.6 | 11.3 | 0.00 | 0.03 | 0.02 | 51 | 1001.8 |
| 20260509205601 | 71 | 242 | 2.6 | 11.3 | 0.00 | 0.03 | 0.02 | 49 | 1001.8 |
| 20260509204633 | 72 | 215 | 1.7 | 8.7 | 0.00 | 0.03 | 0.02 | 52 | 1002.1 |
| 20260509204238 | 71 | 150 | 1.7 | 8.7 | 0.00 | 0.03 | 0.02 | 55 | 1002.1 |
| 20260509203839 | 72 | 261 | 2.6 | 8.7 | 0.00 | 0.03 | 0.02 | 50 | 1002.1 |
| 20260509203433 | 72 | 249 | 2.6 | 13.0 | 0.00 | 0.03 | 0.02 | 48 | 1002.2 |
| 20260509202517 | 72 | 187 | 3.5 | 13.0 | 0.00 | 0.03 | 0.02 | 48 | 1002.2 |
| 20260509202117 | 72 | 146 | 3.5 | 13.0 | 0.00 | 0.03 | 0.02 | 49 | 1002.4 |
| 20260509201715 | 71 | 196 | 2.6 | 13.0 | 0.00 | 0.03 | 0.02 | 48 | 1002.6 |
| 20260509201308 | 72 | 144 | 2.6 | 12.2 | 0.00 | 0.03 | 0.02 | 50 | 1002.4 |
| 20260509200913 | 72 | 126 | 2.6 | 9.6 | 0.00 | 0.03 | 0.02 | 49 | 1002.5 |
| 20260509195934 | 71 | 0 | 2.6 | 7.8 | 0.00 | 0.03 | 0.02 | 51 | 1002.6 |
| 20260509195540 | 70 | 0 | 2.6 | 7.8 | 0.00 | 0.03 | 0.02 | 51 | 1002.8 |
| 20260509195131 | 70 | 87 | 2.6 | 7.8 | 0.00 | 0.03 | 0.02 | 51 | 1002.8 |
| 20260509194722 | 71 | 51 | 2.6 | 7.8 | 0.00 | 0.03 | 0.02 | 52 | 1002.9 |
| 20260509194328 | 70 | 77 | 1.7 | 7.8 | 0.00 | 0.03 | 0.02 | 54 | 1003.0 |
| 20260509193919 | 70 | 112 | 2.6 | 9.6 | 0.00 | 0.03 | 0.02 | 52 | 1002.8 |
| 20260509193508 | 70 | 141 | 2.6 | 9.6 | 0.00 | 0.03 | 0.02 | 52 | 1003.0 |
| 20260509193112 | 70 | 44 | 2.6 | 10.4 | 0.00 | 0.03 | 0.02 | 53 | 1002.8 |
| 20260509192710 | 71 | 160 | 2.6 | 10.4 | 0.00 | 0.03 | 0.02 | 50 | 1003.1 |
| 20260509192317 | 71 | 92 | 2.6 | 10.4 | 0.00 | 0.03 | 0.02 | 49 | 1003.1 |
| 20260509191406 | 72 | 119 | 2.6 | 10.4 | 0.00 | 0.03 | 0.02 | 50 | 1003.2 |
| 20260509190952 | 71 | 110 | 2.6 | 7.8 | 0.00 | 0.03 | 0.02 | 53 | 1003.2 |
| 20260509190539 | 71 | 136 | 3.5 | 7.8 | 0.00 | 0.03 | 0.02 | 53 | 1003.3 |
| 20260509190126 | 71 | 103 | 3.5 | 7.8 | 0.00 | 0.03 | 0.02 | 50 | 1003.4 |
| 20260509185718 | 71 | 187 | 2.6 | 10.4 | 0.00 | 0.03 | 0.02 | 52 | 1003.4 |
| 20260509185316 | 71 | 129 | 3.5 | 10.4 | 0.00 | 0.03 | 0.02 | 52 | 1003.3 |
| 20260509184914 | 71 | 125 | 3.5 | 10.4 | 0.00 | 0.03 | 0.02 | 52 | 1003.3 |
| 20260509183947 | 71 | 227 | 2.6 | 7.8 | 0.00 | 0.03 | 0.02 | 51 | 1003.5 |
| 20260509183008 | 71 | 188 | 2.6 | 7.8 | 0.00 | 0.03 | 0.02 | 52 | 1003.6 |
| 20260509182601 | 71 | 196 | 1.7 | 7.8 | 0.00 | 0.03 | 0.02 | 51 | 1003.7 |
| 20260509182153 | 70 | 138 | 1.7 | 5.2 | 0.00 | 0.03 | 0.02 | 56 | 1003.7 |
| 20260509181758 | 69 | 225 | 0.9 | 5.2 | 0.00 | 0.03 | 0.02 | 56 | 1003.7 |
| 20260509181359 | 69 | 117 | 0.9 | 5.2 | 0.00 | 0.03 | 0.02 | 56 | 1003.8 |
| 20260509181005 | 67 | 225 | 0.9 | 5.2 | 0.00 | 0.03 | 0.02 | 63 | 1003.9 |
| 20260509180037 | 66 | 178 | 0.9 | 5.2 | 0.00 | 0.03 | 0.02 | 69 | 1004.0 |
| 20260509175644 | 66 | 0 | 0.9 | 5.2 | 0.00 | 0.03 | 0.02 | 68 | 1004.0 |
| 20260509174208 | 65 | 0 | 1.7 | 5.2 | 0.00 | 0.03 | 0.02 | 69 | 1004.1 |
| 20260509173812 | 66 | 0 | 1.7 | 5.2 | 0.00 | 0.03 | 0.02 | 68 | 1004.1 |
| 20260509173359 | 66 | 0 | 0.9 | 5.2 | 0.00 | 0.03 | 0.02 | 70 | 1004.1 |
| 20260509172957 | 65 | 0 | 0.9 | 5.2 | 0.00 | 0.03 | 0.02 | 71 | 1004.3 |
| 20260509172543 | 65 | 0 | 1.7 | 5.2 | 0.00 | 0.03 | 0.02 | 72 | 1004.3 |
| 20260509172130 | 64 | 0 | 1.7 | 5.2 | 0.00 | 0.03 | 0.02 | 74 | 1004.3 |
| 20260509171727 | 64 | 0 | 1.7 | 5.2 | 0.00 | 0.03 | 0.02 | 74 | 1004.5 |
| 20260509171327 | 64 | 0 | 1.7 | 7.0 | 0.00 | 0.03 | 0.02 | 71 | 1004.6 |
| 20260509170919 | 65 | 198 | 1.7 | 7.0 | 0.00 | 0.03 | 0.02 | 72 | 1004.6 |
| 20260509170001 | 66 | 103 | 0.9 | 7.0 | 0.00 | 0.03 | 0.02 | 68 | 1004.6 |
| 20260509165550 | 65 | 94 | 0.9 | 2.6 | 0.00 | 0.03 | 0.02 | 70 | 1004.6 |
| 20260509165136 | 65 | 101 | 0.9 | 2.6 | 0.00 | 0.03 | 0.02 | 72 | 1004.5 |
| 20260509164737 | 64 | 0 | 0.9 | 4.3 | 0.00 | 0.03 | 0.02 | 71 | 1004.4 |
| 20260509164321 | 64 | 0 | 0.9 | 4.3 | 0.00 | 0.03 | 0.02 | 73 | 1004.6 |
| 20260509163917 | 64 | 0 | 1.7 | 4.3 | 0.00 | 0.03 | 0.02 | 71 | 1004.8 |
| 20260509163515 | 64 | 0 | 1.7 | 6.1 | 0.00 | 0.03 | 0.02 | 74 | 1004.9 |
| 20260509163106 | 64 | 0 | 1.7 | 6.1 | 0.00 | 0.03 | 0.02 | 72 | 1005.2 |
| 20260509162659 | 64 | 0 | 1.7 | 6.1 | 0.00 | 0.03 | 0.02 | 73 | 1005.2 |
| 20260509162307 | 63 | 0 | 1.7 | 6.1 | 0.00 | 0.03 | 0.02 | 74 | 1005.2 |
| 20260509161902 | 63 | 0 | 2.6 | 6.1 | 0.00 | 0.03 | 0.02 | 72 | 1005.3 |
| 20260509161509 | 63 | 0 | 2.6 | 6.1 | 0.00 | 0.03 | 0.02 | 73 | 1005.4 |
| 20260509161116 | 63 | 0 | 1.7 | 6.1 | 0.00 | 0.03 | 0.02 | 74 | 1005.4 |
| 20260509160712 | 62 | 183 | 1.7 | 4.3 | 0.00 | 0.03 | 0.02 | 77 | 1005.4 |
| 20260509160307 | 61 | 234 | 1.7 | 4.3 | 0.00 | 0.03 | 0.02 | 75 | 1005.5 |
| 20260509155914 | 61 | 199 | 1.7 | 4.3 | 0.00 | 0.03 | 0.02 | 75 | 1005.6 |
| 20260509155518 | 61 | 176 | 1.7 | 4.3 | 0.00 | 0.03 | 0.02 | 78 | 1005.6 |
| 20260509155114 | 60 | 232 | 1.7 | 4.3 | 0.00 | 0.03 | 0.02 | 76 | 1005.6 |
| 20260509154707 | 60 | 78 | 0.9 | 4.3 | 0.00 | 0.02 | 0.01 | 77 | 1005.6 |
| 20260509153759 | 62 | 0 | 1.7 | 5.2 | 0.00 | 0.02 | 0.01 | 74 | 1005.6 |
| 20260509153353 | 63 | 0 | 0.9 | 5.2 | 0.00 | 0.02 | 0.01 | 73 | 1005.6 |
| 20260509152952 | 64 | 0 | 0.9 | 5.2 | 0.00 | 0.02 | 0.01 | 69 | 1005.6 |
| 20260509152038 | 64 | 0 | 1.7 | 5.2 | 0.00 | 0.02 | 0.01 | 74 | 1005.5 |
| 20260509151626 | 63 | 0 | 1.7 | 5.2 | 0.00 | 0.02 | 0.01 | 73 | 1005.5 |
| 20260509151224 | 63 | 0 | 0.9 | 5.2 | 0.00 | 0.02 | 0.01 | 72 | 1005.5 |
| 20260509150811 | 63 | 0 | 1.7 | 5.2 | 0.00 | 0.02 | 0.01 | 75 | 1005.5 |
| 20260509150416 | 63 | 0 | 1.7 | 9.6 | 0.00 | 0.02 | 0.01 | 74 | 1005.6 |
| 20260509150020 | 63 | 0 | 1.7 | 9.6 | 0.00 | 0.02 | 0.01 | 74 | 1005.5 |
| 20260509145606 | 63 | 0 | 1.7 | 9.6 | 0.00 | 0.02 | 0.01 | 74 | 1005.5 |
| 20260509145208 | 63 | 88 | 2.6 | 9.6 | 0.00 | 0.02 | 0.01 | 75 | 1005.5 |
| 20260509144754 | 63 | 181 | 1.7 | 9.6 | 0.00 | 0.02 | 0.01 | 75 | 1005.5 |
| 20260509144340 | 63 | 0 | 0.9 | 7.0 | 0.00 | 0.02 | 0.01 | 76 | 1005.5 |
| 20260509143934 | 62 | 0 | 0.9 | 7.0 | 0.00 | 0.02 | 0.01 | 77 | 1005.5 |
| 20260509143530 | 62 | 0 | 0.9 | 7.0 | 0.00 | 0.02 | 0.01 | 77 | 1005.6 |
| 20260509143122 | 61 | 0 | 1.7 | 7.0 | 0.00 | 0.02 | 0.01 | 78 | 1005.6 |
| 20260509142727 | 61 | 0 | 1.7 | 7.0 | 0.00 | 0.02 | 0.01 | 79 | 1005.4 |
| 20260509142319 | 61 | 0 | 1.7 | 5.2 | 0.00 | 0.02 | 0.01 | 77 | 1005.4 |
| 20260509141920 | 61 | 0 | 1.7 | 5.2 | 0.00 | 0.02 | 0.01 | 78 | 1005.5 |
| 20260509141503 | 61 | 0 | 0.9 | 5.2 | 0.00 | 0.02 | 0.01 | 79 | 1005.6 |
| 20260509141109 | 60 | 0 | 0.9 | 5.2 | 0.00 | 0.02 | 0.01 | 78 | 1005.6 |
| 20260509140711 | 60 | 0 | 0.9 | 3.5 | 0.00 | 0.02 | 0.01 | 80 | 1005.7 |
| 20260509135739 | 60 | 129 | 0.9 | 3.5 | 0.00 | 0.02 | 0.01 | 79 | 1005.7 |
| 20260509135326 | 60 | 113 | 0.9 | 2.6 | 0.00 | 0.02 | 0.01 | 80 | 1005.8 |
| 20260509134920 | 59 | 164 | 0.9 | 4.3 | 0.00 | 0.02 | 0.01 | 82 | 1005.7 |
| 20260509134508 | 59 | 106 | 0.9 | 4.3 | 0.00 | 0.02 | 0.01 | 82 | 1005.8 |
| 20260509133546 | 58 | 137 | 1.7 | 4.3 | 0.00 | 0.02 | 0.01 | 82 | 1005.9 |
| 20260509133144 | 58 | 92 | 0.9 | 4.3 | 0.00 | 0.02 | 0.01 | 82 | 1006.0 |
| 20260509132735 | 58 | 119 | 0.9 | 3.5 | 0.00 | 0.02 | 0.01 | 81 | 1006.1 |
| 20260509131258 | 58 | 226 | 0.9 | 3.5 | 0.00 | 0.02 | 0.01 | 83 | 1006.0 |
| 20260509130319 | 58 | 121 | 0.9 | 3.5 | 0.00 | 0.02 | 0.01 | 84 | 1006.0 |
| 20260509125906 | 58 | 205 | 0.9 | 3.5 | 0.00 | 0.02 | 0.01 | 83 | 1005.9 |
| 20260509124940 | 57 | 99 | 0.0 | 3.5 | 0.00 | 0.02 | 0.01 | 84 | 1006.0 |
| 20260509124527 | 57 | 101 | 0.0 | 2.6 | 0.00 | 0.02 | 0.01 | 84 | 1006.0 |
| 20260509123557 | 57 | 107 | 0.0 | 2.6 | 0.00 | 0.02 | 0.01 | 84 | 1006.1 |
| 20260509123150 | 56 | 190 | 0.0 | 2.6 | 0.00 | 0.02 | 0.01 | 85 | 1006.2 |
| 20260509122741 | 56 | 119 | 0.0 | 2.6 | 0.00 | 0.02 | 0.01 | 84 | 1006.3 |
| 20260509122329 | 56 | 98 | 0.0 | 2.6 | 0.00 | 0.02 | 0.01 | 85 | 1006.3 |
| 20260509121923 | 56 | 73 | 0.0 | 2.6 | 0.00 | 0.02 | 0.01 | 85 | 1006.3 |
| 20260509121516 | 56 | 205 | 0.0 | 2.6 | 0.00 | 0.02 | 0.01 | 85 | 1006.4 |
| 20260509121118 | 56 | 128 | 0.0 | 2.6 | 0.00 | 0.02 | 0.01 | 85 | 1006.4 |
| 20260509120708 | 56 | 115 | 0.0 | 2.6 | 0.00 | 0.02 | 0.01 | 85 | 1006.4 |
| 20260509120256 | 55 | 121 | 0.0 | 2.6 | 0.00 | 0.02 | 0.01 | 85 | 1006.4 |
| 20260509115344 | 55 | 190 | 0.0 | 2.6 | 0.00 | 0.02 | 0.01 | 86 | 1006.6 |
| 20260509114930 | 55 | 222 | 0.9 | 1.7 | 0.00 | 0.02 | 0.01 | 85 | 1006.5 |
| 20260509114525 | 55 | 119 | 0.9 | 2.6 | 0.00 | 0.02 | 0.01 | 86 | 1006.5 |
| 20260509113615 | 55 | 124 | 0.9 | 2.6 | 0.00 | 0.02 | 0.01 | 86 | 1006.3 |
| 20260509113221 | 55 | 123 | 0.9 | 2.6 | 0.00 | 0.02 | 0.01 | 86 | 1006.4 |
| 20260509111748 | 54 | 132 | 0.9 | 3.5 | 0.00 | 0.02 | 0.01 | 86 | 1006.4 |
| 20260509111337 | 54 | 126 | 0.9 | 3.5 | 0.00 | 0.02 | 0.01 | 87 | 1006.4 |
| 20260509110938 | 54 | 137 | 0.0 | 3.5 | 0.00 | 0.02 | 0.01 | 87 | 1006.4 |
| 20260509110537 | 54 | 290 | 0.0 | 2.6 | 0.00 | 0.02 | 0.01 | 87 | 1006.4 |
| 20260509110128 | 54 | 129 | 0.0 | 2.6 | 0.00 | 0.02 | 0.01 | 87 | 1006.3 |
| 20260509105731 | 54 | 120 | 0.0 | 1.7 | 0.00 | 0.02 | 0.01 | 87 | 1006.3 |
| 20260509105316 | 54 | 126 | 0.9 | 1.7 | 0.00 | 0.02 | 0.01 | 87 | 1006.4 |
| 20260509104902 | 54 | 114 | 0.9 | 1.7 | 0.00 | 0.02 | 0.01 | 87 | 1006.4 |
| 20260509104503 | 54 | 129 | 0.0 | 1.7 | 0.00 | 0.02 | 0.01 | 87 | 1006.4 |
| 20260509104051 | 54 | 119 | 0.0 | 1.7 | 0.00 | 0.02 | 0.01 | 87 | 1006.3 |
| 20260509103652 | 54 | 123 | 0.0 | 1.7 | 0.00 | 0.02 | 0.01 | 87 | 1006.4 |
| 20260509103241 | 54 | 123 | 0.0 | 2.6 | 0.00 | 0.02 | 0.01 | 87 | 1006.5 |
| 20260509102832 | 54 | 136 | 0.0 | 2.6 | 0.00 | 0.02 | 0.01 | 87 | 1006.5 |
| 20260509102418 | 54 | 111 | 0.0 | 2.6 | 0.00 | 0.02 | 0.01 | 87 | 1006.4 |
| 20260509102005 | 54 | 130 | 0.0 | 2.6 | 0.00 | 0.02 | 0.01 | 87 | 1006.3 |
| 20260509100453 | 54 | 136 | 0.0 | 1.7 | 0.00 | 0.02 | 0.01 | 87 | 1006.4 |
| 20260509100049 | 54 | 135 | 0.0 | 1.7 | 0.00 | 0.02 | 0.01 | 87 | 1006.4 |
| 20260509095636 | 54 | 165 | 0.0 | 1.7 | 0.00 | 0.02 | 0.01 | 87 | 1006.4 |
| 20260509095225 | 54 | 131 | 0.0 | 2.6 | 0.00 | 0.02 | 0.01 | 86 | 1006.4 |
| 20260509094829 | 54 | 126 | 0.0 | 2.6 | 0.00 | 0.02 | 0.01 | 86 | 1006.5 |
| 20260509094429 | 54 | 119 | 0.0 | 3.5 | 0.00 | 0.02 | 0.01 | 86 | 1006.5 |
| 20260509094029 | 54 | 117 | 0.9 | 3.5 | 0.00 | 0.02 | 0.01 | 86 | 1006.4 |
| 20260509093623 | 54 | 117 | 0.9 | 3.5 | 0.00 | 0.02 | 0.01 | 86 | 1006.5 |
| 20260509093222 | 54 | 121 | 0.9 | 3.5 | 0.00 | 0.02 | 0.01 | 86 | 1006.6 |
| 20260509092818 | 54 | 125 | 0.9 | 3.5 | 0.00 | 0.02 | 0.01 | 86 | 1006.5 |
| 20260509091337 | 54 | 121 | 0.0 | 2.6 | 0.00 | 0.02 | 0.01 | 87 | 1006.7 |
| 20260509090944 | 54 | 126 | 0.9 | 2.6 | 0.00 | 0.02 | 0.01 | 87 | 1006.7 |
| 20260509090550 | 54 | 129 | 0.0 | 2.6 | 0.00 | 0.02 | 0.01 | 87 | 1006.8 |
| 20260509085621 | 54 | 110 | 0.0 | 2.6 | 0.00 | 0.02 | 0.01 | 87 | 1006.9 |
| 20260509085216 | 54 | 114 | 0.0 | 2.6 | 0.00 | 0.02 | 0.01 | 86 | 1006.9 |
| 20260509084806 | 54 | 109 | 0.0 | 2.6 | 0.00 | 0.02 | 0.01 | 87 | 1006.9 |
| 20260509084409 | 54 | 115 | 0.0 | 2.6 | 0.00 | 0.02 | 0.01 | 87 | 1006.9 |
| 20260509084005 | 54 | 107 | 0.0 | 1.7 | 0.00 | 0.02 | 0.01 | 86 | 1006.9 |
| 20260509083037 | 54 | 107 | 0.0 | 1.7 | 0.00 | 0.02 | 0.01 | 87 | 1006.8 |
| 20260509082624 | 54 | 114 | 0.0 | 1.7 | 0.00 | 0.02 | 0.01 | 87 | 1006.8 |
| 20260509082230 | 54 | 109 | 0.0 | 0.9 | 0.00 | 0.02 | 0.01 | 86 | 1006.8 |
| 20260509081819 | 54 | 107 | 0.0 | 2.6 | 0.00 | 0.02 | 0.01 | 86 | 1006.9 |
| 20260509081420 | 54 | 107 | 0.0 | 2.6 | 0.00 | 0.02 | 0.01 | 86 | 1007.0 |
| 20260509081012 | 54 | 123 | 0.0 | 2.6 | 0.00 | 0.02 | 0.01 | 86 | 1007.0 |
| 20260509080614 | 54 | 123 | 0.0 | 2.6 | 0.00 | 0.02 | 0.01 | 86 | 1007.0 |
| 20260509080157 | 54 | 123 | 0.0 | 2.6 | 0.00 | 0.02 | 0.01 | 86 | 1007.0 |
| 20260509075753 | 54 | 129 | 0.0 | 1.7 | 0.00 | 0.02 | 0.01 | 86 | 1006.9 |
| 20260509075351 | 54 | 128 | 0.0 | 1.7 | 0.00 | 0.02 | 0.01 | 87 | 1006.9 |
| 20260509074430 | 54 | 117 | 0.0 | 1.7 | 0.00 | 0.02 | 0.01 | 87 | 1006.8 |
| 20260509074033 | 54 | 178 | 0.0 | 1.7 | 0.00 | 0.02 | 0.01 | 86 | 1006.9 |
| 20260509073634 | 54 | 187 | 0.0 | 1.7 | 0.00 | 0.02 | 0.01 | 86 | 1006.9 |
| 20260509073236 | 54 | 216 | 0.0 | 1.7 | 0.00 | 0.02 | 0.01 | 86 | 1006.8 |
| 20260509072829 | 54 | 186 | 0.0 | 1.7 | 0.00 | 0.02 | 0.01 | 86 | 1006.9 |
| 20260509072413 | 54 | 211 | 0.0 | 2.6 | 0.00 | 0.02 | 0.01 | 86 | 1007.0 |
| 20260509072003 | 54 | 186 | 0.9 | 2.6 | 0.00 | 0.02 | 0.01 | 86 | 1007.0 |
| 20260509071032 | 54 | 129 | 0.9 | 2.6 | 0.00 | 0.02 | 0.01 | 86 | 1007.1 |
| 20260509070622 | 54 | 126 | 0.0 | 2.6 | 0.00 | 0.02 | 0.01 | 86 | 1007.2 |
| 20260509070222 | 54 | 118 | 0.0 | 2.6 | 0.00 | 0.02 | 0.01 | 86 | 1007.1 |
| 20260509065820 | 54 | 115 | 0.0 | 2.6 | 0.00 | 0.02 | 0.01 | 86 | 1007.2 |
| 20260509065413 | 54 | 215 | 0.0 | 2.6 | 0.00 | 0.02 | 0.01 | 86 | 1007.2 |
| 20260509064957 | 54 | 138 | 0.9 | 2.6 | 0.00 | 0.02 | 0.01 | 86 | 1007.3 |
| 20260509064022 | 54 | 107 | 0.0 | 2.6 | 0.00 | 0.02 | 0.01 | 86 | 1007.3 |
| 20260509063624 | 54 | 141 | 0.0 | 2.6 | 0.00 | 0.02 | 0.01 | 86 | 1007.3 |
| 20260509063223 | 54 | 127 | 0.9 | 2.6 | 0.00 | 0.02 | 0.01 | 86 | 1007.2 |
| 20260509062816 | 54 | 121 | 0.9 | 2.6 | 0.00 | 0.02 | 0.01 | 86 | 1007.3 |
| 20260509062403 | 54 | 137 | 0.9 | 2.6 | 0.00 | 0.02 | 0.01 | 86 | 1007.3 |
| 20260509061954 | 54 | 130 | 0.0 | 2.6 | 0.00 | 0.02 | 0.01 | 86 | 1007.4 |
| 20260509061547 | 54 | 138 | 0.0 | 1.7 | 0.00 | 0.02 | 0.01 | 86 | 1007.4 |
| 20260509061147 | 54 | 122 | 0.9 | 1.7 | 0.00 | 0.02 | 0.01 | 86 | 1007.4 |
| 20260509060731 | 54 | 123 | 0.9 | 3.5 | 0.00 | 0.02 | 0.01 | 86 | 1007.6 |
| 20260509060335 | 54 | 145 | 0.9 | 3.5 | 0.00 | 0.02 | 0.01 | 86 | 1007.6 |
| 20260509055933 | 54 | 119 | 0.9 | 3.5 | 0.00 | 0.02 | 0.01 | 86 | 1007.6 |
| 20260509055518 | 54 | 126 | 0.9 | 3.5 | 0.00 | 0.02 | 0.01 | 86 | 1007.6 |
| 20260509055125 | 54 | 124 | 0.9 | 3.5 | 0.00 | 0.02 | 0.01 | 86 | 1007.7 |
| 20260509054716 | 54 | 127 | 0.9 | 2.6 | 0.00 | 0.02 | 0.01 | 86 | 1007.7 |
| 20260509054321 | 54 | 140 | 0.9 | 2.6 | 0.00 | 0.02 | 0.01 | 86 | 1007.7 |
| 20260509053917 | 54 | 139 | 0.9 | 4.3 | 0.00 | 0.02 | 0.01 | 86 | 1007.7 |
| 20260509053509 | 54 | 137 | 0.9 | 4.3 | 0.00 | 0.02 | 0.01 | 86 | 1007.8 |
| 20260509053109 | 54 | 111 | 0.9 | 4.3 | 0.00 | 0.02 | 0.01 | 86 | 1007.8 |
| 20260509052710 | 54 | 134 | 0.9 | 4.3 | 0.00 | 0.02 | 0.01 | 86 | 1007.9 |
| 20260509052302 | 54 | 132 | 0.0 | 4.3 | 0.00 | 0.02 | 0.01 | 86 | 1007.9 |
| 20260509051326 | 54 | 134 | 0.0 | 2.6 | 0.00 | 0.02 | 0.01 | 86 | 1008.0 |
| 20260509050915 | 54 | 139 | 0.0 | 2.6 | 0.00 | 0.02 | 0.01 | 86 | 1008.0 |
| 20260509050519 | 54 | 125 | 0.9 | 2.6 | 0.00 | 0.02 | 0.01 | 86 | 1008.1 |
| 20260509045547 | 54 | 130 | 0.9 | 2.6 | 0.00 | 0.02 | 0.01 | 86 | 1008.2 |